Time,TemperatureF,DewpointF,PressureIn,WindDirection,WindDirectionDegrees,WindSpeedMPH,WindSpeedGustMPH,Humidity,HourlyPrecipIn,Conditions,Clouds,dailyrainin,SoftwareType,DateUTC
2013-10-23 00:01:00,49.1,28.1,29.62,WSW,257,0.0,0.0,44,0.00,,BKN034,0.00,VWS V14.00,2013-10-23 04:01:00,
2013-10-23 00:02:00,48.9,28.0,29.62,WSW,257,0.0,0.0,44,0.00,,BKN034,0.00,VWS V14.00,2013-10-23 04:02:00,
2013-10-23 00:07:00,48.7,28.4,29.62,WSW,257,0.0,0.0,45,0.00,,BKN034,0.00,VWS V14.00,2013-10-23 04:07:00,
2013-10-23 00:12:00,48.7,28.4,29.62,WSW,257,0.0,0.0,45,0.00,,BKN034,0.00,VWS V14.00,2013-10-23 04:12:00,
2013-10-23 00:17:00,48.4,28.0,29.62,WSW,257,0.0,0.0,45,0.00,,BKN034,0.00,VWS V14.00,2013-10-23 04:17:00,
2013-10-23 00:22:00,48.4,28.0,29.62,South,189,0.0,0.0,45,0.00,,BKN034,0.00,VWS V14.00,2013-10-23 04:22:00,
2013-10-23 00:27:00,48.4,28.6,29.62,SSE,149,0.0,0.0,46,0.00,,BKN034,0.00,VWS V14.00,2013-10-23 04:27:00,
2013-10-23 00:32:00,48.2,27.9,29.62,SSE,151,0.0,0.0,45,0.00,,BKN034,0.00,VWS V14.00,2013-10-23 04:32:00,
2013-10-23 00:37:00,48.2,27.9,29.62,South,170,0.0,0.0,45,0.00,,BKN034,0.00,VWS V14.00,2013-10-23 04:37:00,
2013-10-23 00:42:00,48.2,27.9,29.62,South,170,0.0,0.0,45,0.00,,BKN034,0.00,VWS V14.00,2013-10-23 04:42:00,
2013-10-23 00:47:00,48.2,27.9,29.62,South,170,0.0,0.0,45,0.00,,BKN034,0.00,VWS V14.00,2013-10-23 04:47:00,
2013-10-23 00:52:00,48.0,27.2,29.62,South,170,0.0,0.0,44,0.00,,BKN034,0.00,VWS V14.00,2013-10-23 04:52:00,
2013-10-23 00:57:00,47.7,26.3,29.62,South,170,0.0,0.0,43,0.00,,BKN034,0.00,VWS V14.00,2013-10-23 04:57:00,
2013-10-23 01:02:00,47.5,26.7,29.62,South,170,0.0,0.0,44,0.00,,BKN034,0.00,VWS V14.00,2013-10-23 05:02:00,
2013-10-23 01:07:00,47.3,26.5,29.62,South,170,0.0,0.0,44,0.00,,BKN034,0.00,VWS V14.00,2013-10-23 05:07:00,
2013-10-23 01:12:00,46.9,26.7,29.62,South,171,0.0,0.0,45,0.00,,BKN034,0.00,VWS V14.00,2013-10-23 05:12:00,
2013-10-23 01:17:00,46.6,26.9,29.62,NW,307,0.0,0.0,46,0.00,,BKN034,0.00,VWS V14.00,2013-10-23 05:17:00,
2013-10-23 01:22:00,46.2,27.1,29.62,NW,307,0.0,0.0,47,0.00,,BKN034,0.00,VWS V14.00,2013-10-23 05:22:00,
2013-10-23 01:27:00,45.9,27.3,29.62,NW,307,0.0,0.0,48,0.00,,BKN034,0.00,VWS V14.00,2013-10-23 05:27:00,
2013-10-23 01:32:00,45.5,27.5,29.62,NW,308,0.0,0.0,49,0.00,,BKN034,0.00,VWS V14.00,2013-10-23 05:32:00,
2013-10-23 01:37:00,45.3,27.8,29.62,NW,307,0.0,0.0,50,0.00,,BKN034,0.00,VWS V14.00,2013-10-23 05:37:00,
2013-10-23 01:42:00,45.0,27.9,29.62,NW,307,0.0,0.0,51,0.00,,BKN034,0.00,VWS V14.00,2013-10-23 05:42:00,
2013-10-23 01:47:00,44.6,27.6,29.62,NW,307,0.0,0.0,51,0.00,,BKN034,0.00,VWS V14.00,2013-10-23 05:47:00,
2013-10-23 01:52:00,44.2,27.7,29.62,NW,307,0.0,0.0,52,0.00,,BKN034,0.00,VWS V14.00,2013-10-23 05:52:00,
2013-10-23 01:57:00,44.1,28.0,29.62,NW,308,0.0,0.0,53,0.00,,BKN034,0.00,VWS V14.00,2013-10-23 05:57:00,
2013-10-23 02:02:00,43.7,27.7,29.62,NW,307,0.0,0.0,53,0.00,,BKN034,0.00,VWS V14.00,2013-10-23 06:02:00,
2013-10-23 02:07:00,43.3,27.8,29.62,NW,307,0.0,0.0,54,0.00,,BKN034,0.00,VWS V14.00,2013-10-23 06:07:00,
2013-10-23 02:12:00,43.2,27.7,29.62,NW,307,0.0,0.0,54,0.00,,BKN034,0.00,VWS V14.00,2013-10-23 06:12:00,
2013-10-23 02:17:00,42.8,27.8,29.62,NW,307,0.0,0.0,55,0.00,,BKN034,0.00,VWS V14.00,2013-10-23 06:17:00,
2013-10-23 02:22:00,42.6,27.6,29.62,NW,307,0.0,0.0,55,0.00,,BKN034,0.00,VWS V14.00,2013-10-23 06:22:00,
2013-10-23 02:27:00,42.4,27.9,29.62,NW,307,0.0,0.0,56,0.00,,BKN034,0.00,VWS V14.00,2013-10-23 06:27:00,
2013-10-23 02:32:00,42.3,27.7,29.62,NW,307,0.0,0.0,56,0.00,,BKN034,0.00,VWS V14.00,2013-10-23 06:32:00,
2013-10-23 02:37:00,41.9,27.4,29.62,NW,307,0.0,0.0,56,0.00,,BKN034,0.00,VWS V14.00,2013-10-23 06:37:00,
2013-10-23 02:42:00,41.7,27.6,29.62,NW,308,0.0,0.0,57,0.00,,BKN034,0.00,VWS V14.00,2013-10-23 06:42:00,
2013-10-23 02:47:00,41.5,27.9,29.62,NW,307,0.0,0.0,58,0.00,,BKN034,0.00,VWS V14.00,2013-10-23 06:47:00,
2013-10-23 02:52:00,41.4,27.7,29.62,NW,307,0.0,0.0,58,0.00,,BKN034,0.00,VWS V14.00,2013-10-23 06:52:00,
2013-10-23 02:57:00,41.4,28.1,29.62,NW,307,0.0,0.0,59,0.00,,BKN034,0.00,VWS V14.00,2013-10-23 06:57:00,
2013-10-23 03:02:00,41.2,28.0,29.62,NW,307,0.0,0.0,59,0.00,,BKN034,0.00,VWS V14.00,2013-10-23 07:02:00,
2013-10-23 03:07:00,41.2,28.0,29.62,NW,307,0.0,0.0,59,0.00,,BKN034,0.00,VWS V14.00,2013-10-23 07:07:00,
2013-10-23 03:12:00,40.8,27.6,29.62,NW,307,0.0,0.0,59,0.00,,BKN034,0.00,VWS V14.00,2013-10-23 07:12:00,
2013-10-23 03:17:00,40.6,27.5,29.62,NW,307,0.0,0.0,59,0.00,,BKN034,0.00,VWS V14.00,2013-10-23 07:17:00,
2013-10-23 03:22:00,40.6,27.9,29.62,NW,307,0.0,0.0,60,0.00,,BKN034,0.00,VWS V14.00,2013-10-23 07:22:00,
2013-10-23 03:27:00,40.5,28.1,29.62,NW,307,0.0,0.0,61,0.00,,BKN034,0.00,VWS V14.00,2013-10-23 07:27:00,
2013-10-23 03:32:00,40.3,27.5,29.62,NW,307,0.0,0.0,60,0.00,,BKN034,0.00,VWS V14.00,2013-10-23 07:32:00,
2013-10-23 03:37:00,39.9,27.6,29.62,NW,308,0.0,0.0,61,0.00,,BKN034,0.00,VWS V14.00,2013-10-23 07:37:00,
2013-10-23 03:42:00,39.7,27.4,29.62,NW,307,0.0,0.0,61,0.00,,BKN034,0.00,VWS V14.00,2013-10-23 07:42:00,
2013-10-23 03:47:00,39.6,27.6,29.59,NW,307,0.0,0.0,62,0.00,,BKN034,0.00,VWS V14.00,2013-10-23 07:47:00,
2013-10-23 03:52:00,39.4,27.9,29.59,NW,307,0.0,0.0,63,0.00,,BKN034,0.00,VWS V14.00,2013-10-23 07:52:00,
2013-10-23 03:57:00,39.2,27.7,29.59,NW,308,0.0,0.0,63,0.00,,BKN034,0.00,VWS V14.00,2013-10-23 07:57:00,
2013-10-23 04:02:00,39.0,27.5,29.59,NW,307,0.0,0.0,63,0.00,,BKN034,0.00,VWS V14.00,2013-10-23 08:02:00,
2013-10-23 04:07:00,38.8,27.7,29.59,NW,308,0.0,0.0,64,0.00,,BKN034,0.00,VWS V14.00,2013-10-23 08:07:00,
2013-10-23 04:12:00,38.8,27.7,29.59,NW,307,0.0,0.0,64,0.00,,BKN034,0.00,VWS V14.00,2013-10-23 08:12:00,
2013-10-23 04:17:00,38.8,27.7,29.59,NW,308,0.0,0.0,64,0.00,,BKN034,0.00,VWS V14.00,2013-10-23 08:17:00,
2013-10-23 04:22:00,38.8,27.7,29.59,NW,307,0.0,0.0,64,0.00,,BKN034,0.00,VWS V14.00,2013-10-23 08:22:00,
2013-10-23 04:27:00,38.8,27.7,29.59,NW,307,0.0,0.0,64,0.00,,BKN034,0.00,VWS V14.00,2013-10-23 08:27:00,
2013-10-23 04:32:00,38.8,27.7,29.59,NW,307,0.0,0.0,64,0.00,,BKN034,0.00,VWS V14.00,2013-10-23 08:32:00,
2013-10-23 04:37:00,38.8,27.7,29.59,NW,308,0.0,0.0,64,0.00,,BKN034,0.00,VWS V14.00,2013-10-23 08:37:00,
2013-10-23 04:42:00,38.8,27.7,29.59,NW,307,0.0,0.0,64,0.00,,BKN034,0.00,VWS V14.00,2013-10-23 08:42:00,
2013-10-23 04:47:00,38.7,27.5,29.59,NW,307,0.0,0.0,64,0.00,,BKN034,0.00,VWS V14.00,2013-10-23 08:47:00,
2013-10-23 04:52:00,38.7,27.5,29.59,NW,307,0.0,0.0,64,0.00,,BKN034,0.00,VWS V14.00,2013-10-23 08:52:00,
2013-10-23 04:57:00,38.7,27.5,29.59,NW,308,0.0,0.0,64,0.00,,BKN034,0.00,VWS V14.00,2013-10-23 08:57:00,
2013-10-23 05:02:00,38.8,28.1,29.59,NW,307,0.0,0.0,65,0.00,,BKN034,0.00,VWS V14.00,2013-10-23 09:02:00,
2013-10-23 05:07:00,38.8,28.1,29.59,NW,308,0.0,0.0,65,0.00,,BKN034,0.00,VWS V14.00,2013-10-23 09:07:00,
2013-10-23 05:12:00,38.8,27.7,29.59,NW,308,0.0,0.0,64,0.00,,BKN034,0.00,VWS V14.00,2013-10-23 09:12:00,
2013-10-23 05:17:00,38.8,28.1,29.59,NW,307,0.0,0.0,65,0.00,,BKN034,0.00,VWS V14.00,2013-10-23 09:17:00,
2013-10-23 05:22:00,39.0,28.3,29.59,NW,307,0.0,0.0,65,0.00,,BKN034,0.00,VWS V14.00,2013-10-23 09:22:00,
2013-10-23 05:27:00,39.0,28.3,29.59,NW,310,0.0,0.0,65,0.00,,BKN034,0.00,VWS V14.00,2013-10-23 09:27:00,
2013-10-23 05:32:00,39.0,28.3,29.56,NW,304,0.0,0.0,65,0.00,,BKN034,0.00,VWS V14.00,2013-10-23 09:32:00,
2013-10-23 05:37:00,39.2,28.4,29.56,NW,304,0.0,0.0,65,0.00,,BKN034,0.00,VWS V14.00,2013-10-23 09:37:00,
2013-10-23 05:42:00,39.2,28.4,29.56,WNW,302,0.0,0.0,65,0.00,,BKN034,0.00,VWS V14.00,2013-10-23 09:42:00,
2013-10-23 05:47:00,39.2,28.4,29.59,WNW,302,0.0,0.0,65,0.00,,BKN034,0.00,VWS V14.00,2013-10-23 09:47:00,
2013-10-23 05:52:00,38.8,28.1,29.59,WNW,302,0.0,0.0,65,0.00,,BKN034,0.00,VWS V14.00,2013-10-23 09:52:00,
2013-10-23 05:57:00,38.7,27.9,29.59,WNW,303,0.0,0.0,65,0.00,,BKN034,0.00,VWS V14.00,2013-10-23 09:57:00,
2013-10-23 06:02:00,38.5,27.8,29.59,WNW,302,0.0,0.0,65,0.00,,BKN034,0.00,VWS V14.00,2013-10-23 10:02:00,
2013-10-23 06:07:00,38.3,28.0,29.59,WNW,303,0.0,0.0,66,0.00,,BKN034,0.00,VWS V14.00,2013-10-23 10:07:00,
2013-10-23 06:12:00,38.1,27.8,29.59,WNW,302,0.0,0.0,66,0.00,,BKN034,0.00,VWS V14.00,2013-10-23 10:12:00,
2013-10-23 06:17:00,37.9,28.0,29.59,WNW,302,0.0,0.0,67,0.00,,BKN034,0.00,VWS V14.00,2013-10-23 10:17:00,
2013-10-23 06:22:00,38.1,28.5,29.59,WNW,302,0.0,0.0,68,0.00,,BKN034,0.00,VWS V14.00,2013-10-23 10:22:00,
2013-10-23 06:27:00,37.9,28.7,29.59,WNW,303,0.0,0.0,69,0.00,,BKN034,0.00,VWS V14.00,2013-10-23 10:27:00,
2013-10-23 06:32:00,37.9,28.3,29.59,WNW,302,0.0,0.0,68,0.00,,BKN034,0.00,VWS V14.00,2013-10-23 10:32:00,
2013-10-23 06:37:00,37.9,28.3,29.59,WNW,303,0.0,0.0,68,0.00,,BKN034,0.00,VWS V14.00,2013-10-23 10:37:00,
2013-10-23 06:42:00,37.8,28.2,29.59,WNW,302,0.0,0.0,68,0.00,,BKN034,0.00,VWS V14.00,2013-10-23 10:42:00,
2013-10-23 06:47:00,37.6,28.0,29.56,WNW,303,0.0,0.0,68,0.00,,BKN034,0.00,VWS V14.00,2013-10-23 10:47:00,
2013-10-23 06:52:00,37.2,27.6,29.56,WNW,302,0.0,0.0,68,0.00,,BKN034,0.00,VWS V14.00,2013-10-23 10:52:00,
2013-10-23 06:57:00,36.9,27.3,29.56,WNW,302,0.0,0.0,68,0.00,,BKN034,0.00,VWS V14.00,2013-10-23 10:57:00,
2013-10-23 07:02:00,36.9,27.7,29.59,WNW,302,0.0,0.0,69,0.00,,BKN034,0.00,VWS V14.00,2013-10-23 11:02:00,
2013-10-23 07:07:00,36.9,27.7,29.59,WNW,303,0.0,0.0,69,0.00,,BKN034,0.00,VWS V14.00,2013-10-23 11:07:00,
2013-10-23 07:12:00,36.7,27.5,29.59,WNW,302,0.0,0.0,69,0.00,,BKN034,0.00,VWS V14.00,2013-10-23 11:12:00,
2013-10-23 07:17:00,36.7,27.8,29.59,WNW,302,0.0,0.0,70,0.00,,BKN034,0.00,VWS V14.00,2013-10-23 11:17:00,
2013-10-23 07:22:00,36.5,27.7,29.59,WNW,302,0.0,0.0,70,0.00,,BKN034,0.00,VWS V14.00,2013-10-23 11:22:00,
2013-10-23 07:27:00,36.5,27.7,29.59,WNW,303,0.0,0.0,70,0.00,,BKN034,0.00,VWS V14.00,2013-10-23 11:27:00,
2013-10-23 07:32:00,36.7,28.2,29.59,WNW,302,0.0,0.0,71,0.00,,BKN034,0.00,VWS V14.00,2013-10-23 11:32:00,
2013-10-23 07:37:00,36.7,28.2,29.59,WNW,303,0.0,0.0,71,0.00,,BKN034,0.00,VWS V14.00,2013-10-23 11:37:00,
2013-10-23 07:42:00,36.9,28.4,29.59,WNW,303,0.0,0.0,71,0.00,,BKN034,0.00,VWS V14.00,2013-10-23 11:42:00,
2013-10-23 07:47:00,37.0,28.5,29.59,WNW,303,0.0,0.0,71,0.00,,BKN034,0.00,VWS V14.00,2013-10-23 11:47:00,
2013-10-23 07:52:00,37.2,28.7,29.59,WNW,302,0.0,0.0,71,0.00,,BKN034,0.00,VWS V14.00,2013-10-23 11:52:00,
2013-10-23 07:57:00,37.2,28.7,29.59,WNW,302,0.0,0.0,71,0.00,,BKN034,0.00,VWS V14.00,2013-10-23 11:57:00,
2013-10-23 08:02:00,37.4,28.9,29.59,WNW,302,0.0,0.0,71,0.00,,BKN034,0.00,VWS V14.00,2013-10-23 12:02:00,
2013-10-23 08:07:00,37.8,29.6,29.59,WNW,302,0.0,0.0,72,0.00,,BKN034,0.00,VWS V14.00,2013-10-23 12:07:00,
2013-10-23 08:12:00,37.9,29.7,29.59,WNW,302,0.0,0.0,72,0.00,,BKN034,0.00,VWS V14.00,2013-10-23 12:12:00,
2013-10-23 08:18:00,38.1,29.6,29.59,WNW,302,0.0,0.0,71,0.00,,BKN034,0.00,VWS V14.00,2013-10-23 12:18:00,
2013-10-23 08:23:00,38.3,29.4,29.59,WNW,302,0.0,0.0,70,0.00,,BKN034,0.00,VWS V14.00,2013-10-23 12:23:00,
2013-10-23 08:28:00,38.7,29.7,29.59,WNW,302,0.0,0.0,70,0.00,,BKN034,0.00,VWS V14.00,2013-10-23 12:28:00,
2013-10-23 08:33:00,38.8,29.9,29.59,WNW,302,0.0,0.0,70,0.00,,BKN034,0.00,VWS V14.00,2013-10-23 12:33:00,
2013-10-23 08:38:00,39.2,30.2,29.59,WNW,302,0.0,0.0,70,0.00,,BKN034,0.00,VWS V14.00,2013-10-23 12:38:00,
2013-10-23 08:43:00,39.7,31.1,29.59,WNW,303,0.0,0.0,71,0.00,,BKN034,0.00,VWS V14.00,2013-10-23 12:43:00,
2013-10-23 08:48:00,39.9,30.9,29.59,WNW,302,0.0,0.0,70,0.00,,BKN034,0.00,VWS V14.00,2013-10-23 12:48:00,
2013-10-23 08:53:00,40.5,31.5,29.59,WNW,302,0.0,0.0,70,0.00,,BKN034,0.00,VWS V14.00,2013-10-23 12:53:00,
2013-10-23 08:58:00,41.0,31.6,29.59,WNW,302,0.0,0.0,69,0.00,,BKN034,0.00,VWS V14.00,2013-10-23 12:58:00,
2013-10-23 09:03:00,41.4,32.0,29.59,WNW,302,0.0,0.0,69,0.00,,BKN034,0.00,VWS V14.00,2013-10-23 13:03:00,
2013-10-23 09:08:00,41.7,32.0,29.59,WNW,303,0.0,0.0,68,0.00,,BKN034,0.00,VWS V14.00,2013-10-23 13:08:00,
2013-10-23 09:13:00,42.1,31.6,29.59,WNW,303,0.0,0.0,66,0.00,,BKN034,0.00,VWS V14.00,2013-10-23 13:13:00,
2013-10-23 09:18:00,42.3,31.0,29.59,WNW,302,0.0,0.0,64,0.00,,BKN034,0.00,VWS V14.00,2013-10-23 13:18:00,
2013-10-23 09:23:00,42.4,30.4,29.59,WNW,303,0.0,0.0,62,0.00,,BKN034,0.00,VWS V14.00,2013-10-23 13:23:00,
2013-10-23 09:28:00,42.8,30.3,29.59,WNW,303,0.0,0.0,61,0.00,,BKN034,0.00,VWS V14.00,2013-10-23 13:28:00,
2013-10-23 09:33:00,43.0,30.1,29.56,WNW,302,0.0,0.0,60,0.00,,BKN034,0.00,VWS V14.00,2013-10-23 13:33:00,
2013-10-23 09:38:00,43.3,29.6,29.56,WNW,303,0.0,0.0,58,0.00,,BKN034,0.00,VWS V14.00,2013-10-23 13:38:00,
2013-10-23 09:43:00,43.5,29.3,29.56,WNW,302,0.0,0.0,57,0.00,,BKN034,0.00,VWS V14.00,2013-10-23 13:43:00,
2013-10-23 09:48:00,43.7,29.0,29.56,WNW,303,0.0,0.0,56,0.00,,BKN034,0.00,VWS V14.00,2013-10-23 13:48:00,
2013-10-23 09:53:00,44.1,29.4,29.56,WNW,302,0.0,0.0,56,0.00,,BKN034,0.00,VWS V14.00,2013-10-23 13:53:00,
2013-10-23 09:58:00,44.2,29.1,29.56,WNW,303,0.0,0.0,55,0.00,,BKN034,0.00,VWS V14.00,2013-10-23 13:58:00,
2013-10-23 10:03:00,44.6,29.0,29.56,WNW,303,0.0,0.0,54,0.00,,BKN034,0.00,VWS V14.00,2013-10-23 14:03:00,
2013-10-23 10:08:00,44.8,29.2,29.56,WNW,302,0.0,0.0,54,0.00,,BKN034,0.00,VWS V14.00,2013-10-23 14:08:00,
2013-10-23 10:13:00,45.1,29.0,29.56,WNW,302,0.0,0.0,53,0.00,,BKN034,0.00,VWS V14.00,2013-10-23 14:13:00,
2013-10-23 10:18:00,45.5,29.4,29.56,WNW,302,0.0,0.0,53,0.00,,BKN034,0.00,VWS V14.00,2013-10-23 14:18:00,
2013-10-23 10:23:00,45.9,29.7,29.56,WNW,302,0.0,0.0,53,0.00,,BKN034,0.00,VWS V14.00,2013-10-23 14:23:00,
2013-10-23 10:28:00,46.0,28.9,29.56,WNW,302,0.0,0.0,51,0.00,,BKN034,0.00,VWS V14.00,2013-10-23 14:28:00,
2013-10-23 10:33:00,46.4,29.3,29.56,NNW,334,0.0,0.0,51,0.00,,BKN034,0.00,VWS V14.00,2013-10-23 14:33:00,
2013-10-23 10:38:00,46.6,29.0,29.56,NNE,13,0.0,0.0,50,0.00,,BKN034,0.00,VWS V14.00,2013-10-23 14:38:00,
2013-10-23 10:43:00,46.8,28.6,29.56,NNE,12,0.0,0.0,49,0.00,,BKN034,0.00,VWS V14.00,2013-10-23 14:43:00,
2013-10-23 10:48:00,46.9,28.3,29.53,North,351,0.0,0.0,48,0.00,,BKN034,0.00,VWS V14.00,2013-10-23 14:48:00,
2013-10-23 10:53:00,47.1,26.3,29.53,WNW,290,0.0,0.0,44,0.00,,BKN034,0.00,VWS V14.00,2013-10-23 14:53:00,
2013-10-23 10:58:00,47.3,26.5,29.53,South,190,0.0,0.0,44,0.00,,BKN034,0.00,VWS V14.00,2013-10-23 14:58:00,
2013-10-23 11:03:00,47.3,25.4,29.53,South,188,0.0,0.0,42,0.00,,BKN034,0.00,VWS V14.00,2013-10-23 15:03:00,
2013-10-23 11:08:00,47.3,24.2,29.53,SSW,208,0.0,0.0,40,0.00,,BKN034,0.00,VWS V14.00,2013-10-23 15:08:00,
2013-10-23 11:13:00,47.5,24.4,29.53,WSW,258,0.0,0.0,40,0.00,,BKN034,0.00,VWS V14.00,2013-10-23 15:13:00,
2013-10-23 11:18:00,47.7,24.5,29.53,WSW,257,0.0,0.0,40,0.00,,BKN034,0.00,VWS V14.00,2013-10-23 15:18:00,
2013-10-23 11:23:00,47.8,24.1,29.53,WSW,249,0.0,0.0,39,0.00,,BKN034,0.00,VWS V14.00,2013-10-23 15:23:00,
2013-10-23 11:28:00,48.0,23.6,29.53,WSW,249,0.0,0.0,38,0.00,,BKN034,0.00,VWS V14.00,2013-10-23 15:28:00,
2013-10-23 11:33:00,48.0,23.0,29.53,WSW,254,0.0,0.0,37,0.00,,BKN034,0.00,VWS V14.00,2013-10-23 15:33:00,
2013-10-23 11:38:00,48.0,23.0,29.53,WSW,255,0.0,0.0,37,0.00,,BKN034,0.00,VWS V14.00,2013-10-23 15:38:00,
2013-10-23 11:43:00,48.2,23.2,29.53,WSW,254,0.0,0.0,37,0.00,,BKN034,0.00,VWS V14.00,2013-10-23 15:43:00,
2013-10-23 11:48:00,48.2,23.2,29.53,WSW,254,0.0,0.0,37,0.00,,BKN034,0.00,VWS V14.00,2013-10-23 15:48:00,
2013-10-23 11:53:00,48.2,23.2,29.53,WNW,282,0.0,0.0,37,0.00,,BKN034,0.00,VWS V14.00,2013-10-23 15:53:00,
2013-10-23 11:58:00,48.4,23.3,29.53,WNW,282,0.0,0.0,37,0.00,,BKN034,0.00,VWS V14.00,2013-10-23 15:58:00,
2013-10-23 12:03:00,48.4,23.3,29.53,WNW,282,0.0,0.0,37,0.00,,BKN100,0.00,VWS V14.00,2013-10-23 16:03:00,
2013-10-23 12:08:00,48.6,23.5,29.53,WNW,282,0.0,0.0,37,0.00,,BKN100,0.00,VWS V14.00,2013-10-23 16:08:00,
2013-10-23 12:13:00,48.6,23.5,29.53,WNW,282,0.0,0.0,37,0.00,,BKN100,0.00,VWS V14.00,2013-10-23 16:13:00,
2013-10-23 12:18:00,48.7,23.6,29.53,WSW,254,0.0,0.0,37,0.00,,BKN100,0.00,VWS V14.00,2013-10-23 16:18:00,
2013-10-23 12:23:00,48.6,23.5,29.53,WSW,256,0.0,0.0,37,0.00,,BKN100,0.00,VWS V14.00,2013-10-23 16:23:00,
2013-10-23 12:28:00,48.4,23.3,29.53,WSW,256,0.0,0.0,37,0.00,,BKN100,0.00,VWS V14.00,2013-10-23 16:28:00,
2013-10-23 12:33:00,48.7,24.3,29.50,WSW,256,0.0,0.0,38,0.00,,BKN100,0.00,VWS V14.00,2013-10-23 16:33:00,
2013-10-23 12:38:00,49.1,24.0,29.50,WSW,255,0.0,0.0,37,0.00,,BKN100,0.00,VWS V14.00,2013-10-23 16:38:00,
2013-10-23 12:43:00,49.6,24.5,29.50,WSW,256,0.0,0.0,37,0.00,,BKN100,0.00,VWS V14.00,2013-10-23 16:43:00,
2013-10-23 12:48:00,49.8,24.0,29.50,SSW,204,0.0,0.0,36,0.00,,BKN100,0.00,VWS V14.00,2013-10-23 16:48:00,
2013-10-23 12:53:00,49.8,24.0,29.50,WSW,249,0.0,0.0,36,0.00,,BKN100,0.00,VWS V14.00,2013-10-23 16:53:00,
2013-10-23 12:58:00,50.0,24.1,29.50,SW,223,0.0,0.0,36,0.00,,BKN100,0.00,VWS V14.00,2013-10-23 16:58:00,
2013-10-23 13:03:00,50.4,23.1,29.47,WSW,245,0.0,0.0,34,0.00,,BKN100,0.00,VWS V14.00,2013-10-23 17:03:00,
2013-10-23 13:08:00,50.7,22.0,29.47,NNE,33,0.0,0.0,32,0.00,,BKN100,0.00,VWS V14.00,2013-10-23 17:08:00,
2013-10-23 13:13:00,50.9,22.1,29.47,West,276,0.0,0.0,32,0.00,,BKN100,0.00,VWS V14.00,2013-10-23 17:13:00,
2013-10-23 13:18:00,50.7,19.6,29.47,SE,127,0.0,0.0,29,0.00,,BKN100,0.00,VWS V14.00,2013-10-23 17:18:00,
2013-10-23 13:23:00,50.9,19.0,29.47,WNW,292,0.0,0.0,28,0.00,,BKN100,0.00,VWS V14.00,2013-10-23 17:23:00,
2013-10-23 13:28:00,50.9,19.0,29.47,NNE,21,0.0,0.0,28,0.00,,BKN100,0.00,VWS V14.00,2013-10-23 17:28:00,
2013-10-23 13:33:00,50.9,19.8,29.47,West,264,0.0,2.7,29,0.00,,BKN100,0.00,VWS V14.00,2013-10-23 17:33:00,
2013-10-23 13:38:00,51.1,19.1,29.47,WNW,301,0.0,0.0,28,0.00,,BKN100,0.00,VWS V14.00,2013-10-23 17:38:00,
2013-10-23 13:43:00,51.1,18.3,29.47,West,274,0.0,0.0,27,0.00,,BKN100,0.00,VWS V14.00,2013-10-23 17:43:00,
2013-10-23 13:48:00,51.3,19.3,29.44,NE,44,0.0,0.0,28,0.00,,BKN100,0.00,VWS V14.00,2013-10-23 17:48:00,
2013-10-23 13:53:00,51.4,19.4,29.44,East,85,0.0,0.0,28,0.00,,BKN100,0.00,VWS V14.00,2013-10-23 17:53:00,
2013-10-23 13:58:00,51.4,18.6,29.44,North,4,0.0,0.0,27,0.00,,BKN100,0.00,VWS V14.00,2013-10-23 17:58:00,
2013-10-23 14:03:00,51.6,18.8,29.41,ENE,66,0.0,2.7,27,0.00,,BKN100,0.00,VWS V14.00,2013-10-23 18:03:00,
2013-10-23 14:08:00,51.4,17.7,29.41,West,281,0.0,0.0,26,0.00,,BKN100,0.00,VWS V14.00,2013-10-23 18:08:00,
2013-10-23 14:13:00,51.3,17.6,29.41,WNW,302,0.0,0.0,26,0.00,,BKN100,0.00,VWS V14.00,2013-10-23 18:13:00,
2013-10-23 14:18:00,51.3,17.6,29.44,NW,307,0.0,0.0,26,0.00,,BKN100,0.00,VWS V14.00,2013-10-23 18:18:00,
2013-10-23 14:23:00,51.4,17.7,29.44,West,259,0.0,0.0,26,0.00,,BKN100,0.00,VWS V14.00,2013-10-23 18:23:00,
2013-10-23 14:28:00,51.4,17.7,29.44,WSW,248,0.0,0.0,26,0.00,,BKN100,0.00,VWS V14.00,2013-10-23 18:28:00,
2013-10-23 14:33:00,51.6,17.9,29.44,NNE,32,0.0,0.0,26,0.00,,BKN100,0.00,VWS V14.00,2013-10-23 18:33:00,
2013-10-23 14:38:00,51.8,18.0,29.44,NE,52,0.0,0.0,26,0.00,,BKN100,0.00,VWS V14.00,2013-10-23 18:38:00,
2013-10-23 14:43:00,52.0,18.2,29.44,East,92,0.0,0.0,26,0.00,,BKN100,0.00,VWS V14.00,2013-10-23 18:43:00,
2013-10-23 14:48:00,51.8,18.0,29.44,ENE,68,0.0,0.0,26,0.00,,BKN100,0.00,VWS V14.00,2013-10-23 18:48:00,
2013-10-23 14:53:00,51.6,17.9,29.44,SSW,207,0.0,0.0,26,0.00,,BKN100,0.00,VWS V14.00,2013-10-23 18:53:00,
2013-10-23 14:58:00,51.8,18.0,29.44,SSW,207,0.0,0.0,26,0.00,,BKN100,0.00,VWS V14.00,2013-10-23 18:58:00,
2013-10-23 15:03:00,51.8,18.0,29.41,SSW,207,0.0,0.0,26,0.00,,BKN100,0.00,VWS V14.00,2013-10-23 19:03:00,
2013-10-23 15:08:00,52.0,18.2,29.41,SSW,207,0.0,0.0,26,0.00,,BKN100,0.00,VWS V14.00,2013-10-23 19:08:00,
2013-10-23 15:13:00,52.0,18.2,29.41,SSW,207,0.0,0.0,26,0.00,,BKN100,0.00,VWS V14.00,2013-10-23 19:13:00,
2013-10-23 15:18:00,51.8,18.0,29.41,SSW,207,0.0,0.0,26,0.00,,BKN100,0.00,VWS V14.00,2013-10-23 19:18:00,
2013-10-23 15:23:00,51.6,17.9,29.41,SSW,207,0.0,0.0,26,0.00,,BKN100,0.00,VWS V14.00,2013-10-23 19:23:00,
2013-10-23 15:28:00,51.6,17.9,29.41,SSW,207,0.0,0.0,26,0.00,,BKN100,0.00,VWS V14.00,2013-10-23 19:28:00,
2013-10-23 15:33:00,51.6,17.9,29.44,SSW,207,0.0,0.0,26,0.00,,BKN100,0.00,VWS V14.00,2013-10-23 19:33:00,
2013-10-23 15:38:00,51.6,17.9,29.44,SSW,207,0.0,0.0,26,0.00,,BKN100,0.00,VWS V14.00,2013-10-23 19:38:00,
2013-10-23 15:43:00,51.6,17.9,29.44,SSW,207,0.0,0.0,26,0.00,,BKN100,0.00,VWS V14.00,2013-10-23 19:43:00,
2013-10-23 15:48:00,51.6,17.9,29.44,SSW,207,0.0,0.0,26,0.00,,BKN100,0.00,VWS V14.00,2013-10-23 19:48:00,
2013-10-23 15:53:00,51.4,17.7,29.44,SSW,206,0.0,0.0,26,0.00,,BKN100,0.00,VWS V14.00,2013-10-23 19:53:00,
2013-10-23 15:58:00,51.4,18.6,29.44,SSW,207,0.0,0.0,27,0.00,,BKN100,0.00,VWS V14.00,2013-10-23 19:58:00,
2013-10-23 16:03:00,51.4,19.4,29.41,SSW,207,0.0,0.0,28,0.00,,BKN100,0.00,VWS V14.00,2013-10-23 20:03:00,
2013-10-23 16:08:00,51.6,18.8,29.41,SSW,206,0.0,0.0,27,0.00,,BKN100,0.00,VWS V14.00,2013-10-23 20:08:00,
2013-10-23 16:13:00,51.6,18.8,29.41,SSW,207,0.0,0.0,27,0.00,,BKN100,0.00,VWS V14.00,2013-10-23 20:13:00,
2013-10-23 16:18:00,51.6,19.6,29.44,SSW,207,0.0,0.0,28,0.00,,BKN100,0.00,VWS V14.00,2013-10-23 20:18:00,
2013-10-23 16:23:00,51.6,18.8,29.44,SSW,207,0.0,0.0,27,0.00,,BKN100,0.00,VWS V14.00,2013-10-23 20:23:00,
2013-10-23 16:28:00,51.8,18.9,29.44,SSW,206,0.0,0.0,27,0.00,,BKN100,0.00,VWS V14.00,2013-10-23 20:28:00,
2013-10-23 16:33:00,51.8,18.9,29.44,SSW,207,0.0,0.0,27,0.00,,BKN100,0.00,VWS V14.00,2013-10-23 20:33:00,
2013-10-23 16:38:00,51.6,19.6,29.44,SSW,207,0.0,0.0,28,0.00,,BKN100,0.00,VWS V14.00,2013-10-23 20:38:00,
2013-10-23 16:43:00,51.4,18.6,29.44,SSW,207,0.0,0.0,27,0.00,,BKN100,0.00,VWS V14.00,2013-10-23 20:43:00,
2013-10-23 16:48:00,51.4,18.6,29.44,SSW,207,0.0,0.0,27,0.00,,BKN100,0.00,VWS V14.00,2013-10-23 20:48:00,
2013-10-23 16:53:00,51.4,18.6,29.44,SSW,206,0.0,0.0,27,0.00,,BKN100,0.00,VWS V14.00,2013-10-23 20:53:00,
2013-10-23 16:58:00,51.6,19.6,29.44,SSW,207,0.0,0.0,28,0.00,,BKN100,0.00,VWS V14.00,2013-10-23 20:58:00,
2013-10-23 17:03:00,51.6,18.8,29.44,SSW,207,0.0,0.0,27,0.00,,BKN100,0.00,VWS V14.00,2013-10-23 21:03:00,
2013-10-23 17:08:00,51.4,18.6,29.44,SSW,207,0.0,0.0,27,0.00,,BKN100,0.00,VWS V14.00,2013-10-23 21:08:00,
2013-10-23 17:13:00,51.3,18.4,29.44,SSW,207,0.0,0.0,27,0.00,,BKN100,0.00,VWS V14.00,2013-10-23 21:13:00,
2013-10-23 17:18:00,51.1,19.1,29.44,SSW,207,0.0,0.0,28,0.00,,BKN100,0.00,VWS V14.00,2013-10-23 21:18:00,
2013-10-23 17:23:00,50.9,19.0,29.44,SSW,207,0.0,0.0,28,0.00,,BKN100,0.00,VWS V14.00,2013-10-23 21:23:00,
2013-10-23 17:28:00,50.5,18.7,29.44,SSW,207,0.0,0.0,28,0.00,,BKN100,0.00,VWS V14.00,2013-10-23 21:28:00,
2013-10-23 17:33:00,50.5,18.7,29.44,SSW,207,0.0,0.0,28,0.00,,BKN100,0.00,VWS V14.00,2013-10-23 21:33:00,
2013-10-23 17:38:00,50.4,19.3,29.44,SSW,207,0.0,0.0,29,0.00,,BKN100,0.00,VWS V14.00,2013-10-23 21:38:00,
2013-10-23 17:43:00,50.2,19.2,29.44,SSW,207,0.0,0.0,29,0.00,,BKN100,0.00,VWS V14.00,2013-10-23 21:43:00,
2013-10-23 17:48:00,49.8,19.6,29.44,SSW,207,0.0,0.0,30,0.00,,BKN100,0.00,VWS V14.00,2013-10-23 21:48:00,
2013-10-23 17:53:00,49.6,20.3,29.44,SSW,207,0.0,0.0,31,0.00,,BKN100,0.00,VWS V14.00,2013-10-23 21:53:00,
2013-10-23 17:58:00,49.3,21.4,29.44,SSW,207,0.0,0.0,33,0.00,,BKN100,0.00,VWS V14.00,2013-10-23 21:58:00,
2013-10-23 18:03:00,48.7,22.3,29.44,SSW,207,0.0,0.0,35,0.00,,BKN100,0.00,VWS V14.00,2013-10-23 22:03:00,
2013-10-23 18:08:00,48.6,22.8,29.44,SSW,207,0.0,0.0,36,0.00,,BKN100,0.00,VWS V14.00,2013-10-23 22:08:00,
2013-10-23 18:13:00,48.4,23.3,29.44,SSW,207,0.0,0.0,37,0.00,,BKN100,0.00,VWS V14.00,2013-10-23 22:13:00,
2013-10-23 18:18:00,48.2,23.8,29.44,SSW,207,0.0,0.0,38,0.00,,BKN100,0.00,VWS V14.00,2013-10-23 22:18:00,
2013-10-23 18:23:00,47.8,23.5,29.44,SSW,207,0.0,0.0,38,0.00,,BKN100,0.00,VWS V14.00,2013-10-23 22:23:00,
2013-10-23 18:28:00,47.7,23.9,29.44,SSW,207,0.0,0.0,39,0.00,,BKN100,0.00,VWS V14.00,2013-10-23 22:28:00,
2013-10-23 18:33:00,47.5,23.8,29.47,WNW,301,0.0,0.0,39,0.00,,BKN100,0.00,VWS V14.00,2013-10-23 22:33:00,
2013-10-23 18:38:00,47.3,24.2,29.47,WNW,301,0.0,0.0,40,0.00,,BKN100,0.00,VWS V14.00,2013-10-23 22:38:00,
2013-10-23 18:43:00,47.1,24.6,29.47,WSW,258,0.0,0.0,41,0.00,,BKN100,0.00,VWS V14.00,2013-10-23 22:43:00,
2013-10-23 18:48:00,47.1,24.6,29.47,WSW,258,0.0,0.0,41,0.00,,BKN100,0.00,VWS V14.00,2013-10-23 22:48:00,
2013-10-23 18:53:00,47.1,25.2,29.47,WSW,257,0.0,0.0,42,0.00,,BKN100,0.00,VWS V14.00,2013-10-23 22:53:00,
2013-10-23 18:58:00,47.1,24.6,29.47,WSW,257,0.0,0.0,41,0.00,,BKN100,0.00,VWS V14.00,2013-10-23 22:58:00,
2013-10-23 19:03:00,46.9,24.5,29.47,WSW,257,0.0,0.0,41,0.00,,BKN100,0.00,VWS V14.00,2013-10-23 23:03:00,
2013-10-23 19:08:00,46.9,24.5,29.47,WSW,257,0.0,0.0,41,0.00,,BKN100,0.00,VWS V14.00,2013-10-23 23:08:00,
2013-10-23 19:13:00,46.8,24.3,29.47,WSW,258,0.0,0.0,41,0.00,,BKN100,0.00,VWS V14.00,2013-10-23 23:13:00,
2013-10-23 19:18:00,46.8,24.9,29.47,WSW,258,0.0,0.0,42,0.00,,BKN100,0.00,VWS V14.00,2013-10-23 23:18:00,
2013-10-23 19:23:00,46.8,24.9,29.47,WSW,258,0.0,0.0,42,0.00,,BKN100,0.00,VWS V14.00,2013-10-23 23:23:00,
2013-10-23 19:28:00,46.8,24.9,29.47,WSW,258,0.0,0.0,42,0.00,,BKN100,0.00,VWS V14.00,2013-10-23 23:28:00,
2013-10-23 19:33:00,46.8,24.9,29.47,WNW,298,0.0,0.0,42,0.00,,BKN100,0.00,VWS V14.00,2013-10-23 23:33:00,
2013-10-23 19:38:00,47.1,24.1,29.47,WNW,301,2.7,3.1,40,0.00,,BKN100,0.00,VWS V14.00,2013-10-23 23:38:00,
2013-10-23 19:43:00,47.8,23.5,29.47,WNW,302,0.0,0.0,38,0.00,,BKN100,0.00,VWS V14.00,2013-10-23 23:43:00,
2013-10-23 19:48:00,48.4,23.3,29.47,WNW,302,2.7,3.1,37,0.00,,BKN100,0.00,VWS V14.00,2013-10-23 23:48:00,
2013-10-23 19:53:00,48.7,23.0,29.47,WNW,291,3.1,3.1,36,0.00,,BKN100,0.00,VWS V14.00,2013-10-23 23:53:00,
2013-10-23 19:58:00,48.9,21.8,29.47,NW,306,0.0,3.6,34,0.00,,BKN100,0.00,VWS V14.00,2013-10-23 23:58:00,
2013-10-23 20:03:00,49.1,21.3,29.47,WNW,289,0.0,0.0,33,0.00,,BKN100,0.00,VWS V14.00,2013-10-24 00:03:00,
2013-10-23 20:08:00,49.3,20.7,29.47,WNW,289,0.0,0.0,32,0.00,,BKN100,0.00,VWS V14.00,2013-10-24 00:08:00,
2013-10-23 20:13:00,49.5,20.9,29.47,WNW,286,0.0,0.0,32,0.00,,BKN100,0.00,VWS V14.00,2013-10-24 00:13:00,
2013-10-23 20:18:00,49.5,20.1,29.47,West,281,0.0,0.0,31,0.00,,BKN100,0.00,VWS V14.00,2013-10-24 00:18:00,
2013-10-23 20:23:00,49.5,20.1,29.47,WNW,287,0.0,2.7,31,0.00,,BKN100,0.00,VWS V14.00,2013-10-24 00:23:00,
2013-10-23 20:28:00,49.5,20.1,29.47,West,278,0.0,0.0,31,0.00,,BKN100,0.00,VWS V14.00,2013-10-24 00:28:00,
2013-10-23 20:33:00,49.5,20.1,29.47,WNW,297,0.0,0.0,31,0.00,,BKN100,0.00,VWS V14.00,2013-10-24 00:33:00,
2013-10-23 20:38:00,49.5,20.9,29.47,WNW,297,0.0,0.0,32,0.00,,BKN100,0.00,VWS V14.00,2013-10-24 00:38:00,
2013-10-23 20:43:00,49.3,21.4,29.47,West,272,0.0,0.0,33,0.00,,BKN100,0.00,VWS V14.00,2013-10-24 00:43:00,
2013-10-23 20:48:00,49.1,21.3,29.47,NW,306,2.7,3.6,33,0.00,,BKN100,0.00,VWS V14.00,2013-10-24 00:48:00,
2013-10-23 20:53:00,48.9,21.1,29.47,ESE,112,0.0,0.0,33,0.00,,BKN100,0.00,VWS V14.00,2013-10-24 00:53:00,
2013-10-23 20:58:00,48.9,22.5,29.47,ESE,112,0.0,0.0,35,0.00,,BKN100,0.00,VWS V14.00,2013-10-24 00:58:00,
2013-10-23 21:03:00,48.9,23.2,29.50,WNW,298,0.0,0.0,36,0.00,,BKN100,0.00,VWS V14.00,2013-10-24 01:03:00,
2013-10-23 21:08:00,48.9,23.2,29.50,West,270,0.0,0.0,36,0.00,,BKN100,0.00,VWS V14.00,2013-10-24 01:08:00,
2013-10-23 21:13:00,49.1,22.0,29.50,WNW,293,0.0,2.7,34,0.00,,BKN100,0.00,VWS V14.00,2013-10-24 01:13:00,
2013-10-23 21:18:00,49.3,21.4,29.50,NW,312,0.0,3.1,33,0.00,,BKN100,0.00,VWS V14.00,2013-10-24 01:18:00,
2013-10-23 21:23:00,49.3,21.4,29.50,West,276,2.7,3.6,33,0.00,,BKN100,0.00,VWS V14.00,2013-10-24 01:23:00,
2013-10-23 21:28:00,49.5,21.6,29.50,WNW,284,2.7,3.1,33,0.00,,BKN100,0.00,VWS V14.00,2013-10-24 01:28:00,
2013-10-23 21:33:00,49.5,21.6,29.50,WNW,298,0.0,0.0,33,0.00,,BKN100,0.00,VWS V14.00,2013-10-24 01:33:00,
2013-10-23 21:38:00,49.5,21.6,29.50,NW,318,4.0,4.0,33,0.00,,BKN100,0.00,VWS V14.00,2013-10-24 01:38:00,
2013-10-23 21:43:00,49.5,20.9,29.50,West,261,3.1,3.6,32,0.00,,BKN100,0.00,VWS V14.00,2013-10-24 01:43:00,
2013-10-23 21:48:00,49.5,21.6,29.50,WNW,291,0.0,2.7,33,0.00,,BKN100,0.00,VWS V14.00,2013-10-24 01:48:00,
2013-10-23 21:53:00,49.5,21.6,29.50,WNW,298,3.1,3.6,33,0.00,,BKN100,0.00,VWS V14.00,2013-10-24 01:53:00,
2013-10-23 21:58:00,49.5,20.9,29.50,WNW,297,2.7,3.1,32,0.00,,BKN100,0.00,VWS V14.00,2013-10-24 01:58:00,
2013-10-23 22:03:00,49.5,20.9,29.50,WNW,301,4.5,4.5,32,0.00,,BKN100,0.00,VWS V14.00,2013-10-24 02:03:00,
2013-10-23 22:08:00,49.5,20.9,29.50,West,260,3.6,3.6,32,0.00,,BKN100,0.00,VWS V14.00,2013-10-24 02:08:00,
2013-10-23 22:13:00,49.5,20.9,29.50,NW,312,3.1,3.1,32,0.00,,BKN100,0.00,VWS V14.00,2013-10-24 02:13:00,
2013-10-23 22:18:00,49.5,21.6,29.50,West,280,3.1,5.4,33,0.00,,BKN100,0.00,VWS V14.00,2013-10-24 02:18:00,
2013-10-23 22:23:00,49.5,21.6,29.50,West,271,3.1,4.5,33,0.00,,BKN100,0.00,VWS V14.00,2013-10-24 02:23:00,
2013-10-23 22:28:00,49.6,21.7,29.50,WNW,296,3.6,3.6,33,0.00,,BKN100,0.00,VWS V14.00,2013-10-24 02:28:00,
2013-10-23 22:33:00,49.6,21.0,29.50,WNW,291,2.7,3.6,32,0.00,,BKN100,0.00,VWS V14.00,2013-10-24 02:33:00,
2013-10-23 22:38:00,49.5,20.9,29.50,NW,304,3.6,3.6,32,0.00,,BKN100,0.00,VWS V14.00,2013-10-24 02:38:00,
2013-10-23 22:43:00,49.5,21.6,29.50,NW,319,3.1,3.6,33,0.00,,BKN100,0.00,VWS V14.00,2013-10-24 02:43:00,
2013-10-23 22:48:00,49.5,21.6,29.50,WNW,301,4.0,4.0,33,0.00,,BKN100,0.00,VWS V14.00,2013-10-24 02:48:00,
2013-10-23 22:53:00,49.5,21.6,29.50,WNW,295,3.1,3.1,33,0.00,,BKN100,0.00,VWS V14.00,2013-10-24 02:53:00,
2013-10-23 22:58:00,49.5,21.6,29.50,West,275,0.0,3.1,33,0.00,,BKN100,0.00,VWS V14.00,2013-10-24 02:58:00,
2013-10-23 23:03:00,49.5,22.3,29.53,West,260,3.1,4.0,34,0.00,,BKN100,0.00,VWS V14.00,2013-10-24 03:03:00,
2013-10-23 23:08:00,49.5,21.6,29.53,WNW,297,3.6,4.5,33,0.00,,BKN100,0.00,VWS V14.00,2013-10-24 03:08:00,
2013-10-23 23:13:00,49.5,22.3,29.53,WSW,251,3.6,4.0,34,0.00,,BKN100,0.00,VWS V14.00,2013-10-24 03:13:00,
2013-10-23 23:18:00,49.6,22.4,29.53,WNW,288,0.0,3.6,34,0.00,,BKN100,0.00,VWS V14.00,2013-10-24 03:18:00,
2013-10-23 23:23:00,49.5,22.3,29.53,WNW,300,2.7,3.6,34,0.00,,BKN100,0.00,VWS V14.00,2013-10-24 03:23:00,
2013-10-23 23:28:00,49.5,23.0,29.53,WNW,300,4.5,4.5,35,0.00,,BKN100,0.00,VWS V14.00,2013-10-24 03:28:00,
2013-10-23 23:33:00,49.3,22.1,29.53,NW,312,0.0,3.1,34,0.00,,BKN100,0.00,VWS V14.00,2013-10-24 03:33:00,
2013-10-23 23:38:00,49.3,22.1,29.53,West,269,0.0,4.0,34,0.00,,BKN100,0.00,VWS V14.00,2013-10-24 03:38:00,
2013-10-23 23:43:00,49.3,22.8,29.53,West,274,0.0,2.7,35,0.00,,BKN100,0.00,VWS V14.00,2013-10-24 03:43:00,
2013-10-23 23:48:00,49.3,22.8,29.53,West,265,0.0,2.7,35,0.00,,BKN100,0.00,VWS V14.00,2013-10-24 03:48:00,
2013-10-23 23:53:00,48.9,23.2,29.53,West,265,0.0,2.7,36,0.00,,BKN100,0.00,VWS V14.00,2013-10-24 03:53:00,
2013-10-23 23:58:00,48.7,23.0,29.53,West,264,0.0,3.1,36,0.00,,BKN100,0.00,VWS V14.00,2013-10-24 03:58:00,